Wind_Speed
74 75 78 77 76 74 75 75 85 85 93 93 92 90 86 85 80 83 80 83 76 70 69 67 66 62 61 59 60 56 51 45 41 37 39 39 37 33 28 25 25 24 26 26 25 24 24 22 22
75 79 81 80 79 78 74 78 83 92 93 92 91 93 91 88 88 79 83 84 84 77 72 69 69 67 65 58 59 59 54 46 43 36 39 38 40 33 29 25 25 23 26 27 27 26 25 25 22
81 82 86 85 82 76 78 81 88 93 93 90 85 88 88 87 90 87 83 84 87 83 77 72 68 69 67 64 61 59 56 49 44 39 39 34 42 39 30 26 26 25 25 27 28 27 26 25 25
86 84 87 87 86 78 85 84 89 98 99 92 91 85 84 84 82 79 84 85 84 82 78 76 70 69 66 65 64 62 58 54 48 44 38 35 40 35 31 36 29 27 25 26 27 27 26 26 24
95 92 92 86 82 85 87 89 94 96 104 101 96 90 85 85 85 84 79 86 85 82 80 76 75 70 66 64 62 61 60 57 50 48 42 37 40 37 35 31 32 31 30 27 27 27 26 24 23
98 100 98 92 93 91 91 92 97 101 105 109 105 97 95 93 88 85 80 77 81 85 82 79 76 73 70 67 64 62 60 58 56 53 47 41 40 42 33 32 31 31 31 29 27 26 26 26 25
98 100 101 98 95 96 95 94 97 99 101 107 108 104 100 97 97 92 86 81 77 78 81 80 77 74 72 71 69 67 65 61 60 54 49 45 45 46 37 34 29 28 30 31 31 26 25 26 26
90 96 99 104 97 94 98 98 101 102 101 105 104 107 104 101 97 99 94 89 83 79 76 78 76 72 72 70 68 70 67 65 62 60 53 46 47 45 41 36 36 31 32 33 30 29 28 29 28
86 88 91 96 98 97 102 103 104 103 104 105 107 105 104 104 101 99 98 95 88 85 78 76 73 72 69 70 68 69 65 62 62 58 52 48 47 46 41 39 38 36 34 35 34 33 32 31 31
81 85 92 92 95 97 100 101 106 107 105 106 108 108 105 107 105 102 97 95 92 88 85 80 76 73 69 68 68 68 66 63 62 57 56 52 49 48 44 43 40 37 38 38 37 37 37 35 35
80 83 88 88 91 94 95 100 105 105 105 107 112 110 102 107 107 105 98 96 90 84 86 83 81 73 71 69 69 68 67 65 63 59 57 54 52 49 48 46 43 41 40 40 41 38 40 39 38
84 87 87 91 94 94 95 95 97 103 101 110 113 113 108 105 106 102 98 96 88 66 72 79 79 76 73 70 71 70 69 67 64 61 60 56 54 53 52 51 47 47 43 43 43 43 41 43 42
76 81 84 87 94 98 98 97 101 97 97 107 110 117 111 106 102 102 100 94 92 71 58 60 74 74 71 72 70 72 73 72 69 65 64 61 59 56 54 53 51 51 48 48 45 47 45 46 44
63 66 70 76 86 91 94 95 99 94 102 105 108 112 113 109 104 103 99 96 85 85 40 57 65 69 68 68 70 71 73 72 70 68 67 63 61 57 56 55 53 54 53 50 49 49 49 48 45
55 57 63 72 77 75 83 79 90 104 105 102 105 107 109 110 104 99 97 95 82 80 74 55 55 63 59 57 62 65 73 71 69 70 70 67 63 63 57 59 57 55 54 54 54 54 53 50 48
45 53 57 65 69 63 61 63 84 92 105 107 106 106 107 108 107 99 96 93 87 79 86 70 53 47 52 71 56 62 69 68 67 65 65 68 69 65 60 58 60 56 55 57 57 56 55 53 50
40 44 49 56 58 50 46 57 80 86 98 108 108 109 105 108 104 96 95 93 90 81 87 65 61 54 61 61 52 47 54 65 72 67 70 68 66 65 64 58 57 59 59 60 59 58 57 58 57
37 39 44 42 45 44 48 65 75 76 86 101 108 109 106 105 104 98 96 93 87 79 85 67 56 57 34 60 74 67 64 71 71 69 74 70 66 67 68 66 59 58 60 62 61 62 60 59 57
35 35 35 33 31 38 43 51 57 68 76 93 102 107 107 104 103 97 95 92 87 79 89 80 52 52 58 51 54 62 55 56 59 65 65 65 72 69 67 67 64 64 57 58 64 61 57 57 58
36 33 29 30 24 31 35 45 47 58 67 81 97 105 107 104 100 94 95 93 89 83 99 90 69 45 48 70 48 56 61 54 65 69 71 66 68 74 71 70 65 65 62 60 61 64 63 62 63
37 32 29 24 23 22 32 36 41 49 60 74 87 99 107 104 99 92 94 93 91 88 95 84 88 72 54 57 64 61 45 56 52 64 72 76 76 77 75 77 74 69 68 65 63 65 67 68 67
40 34 23 24 20 18 30 26 33 42 53 67 81 93 101 103 100 93 94 92 94 94 105 90 86 91 72 58 77 76 58 66 66 61 62 77 73 72 75 75 79 75 72 74 74 75 76 75 75
38 36 24 22 20 17 24 23 30 40 47 59 73 85 95 103 100 95 95 95 96 96 104 105 91 75 81 55 64 78 68 63 62 57 58 64 68 72 74 77 78 77 79 80 81 83 83 82 82
39 37 31 20 20 16 18 21 27 33 41 50 65 79 88 95 97 95 94 95 98 106 106 108 91 80 92 81 72 66 55 68 61 67 73 73 76 75 78 79 80 81 83 83 83 86 87 88 88
35 29 28 27 24 17 14 15 21 28 37 46 58 73 85 92 91 91 91 93 99 108 109 107 104 85 80 67 72 64 50 58 83 74 70 73 73 76 78 79 81 82 82 85 86 88 89 90 92
28 25 24 22 19 13 10 10 17 24 31 42 55 68 80 88 87 87 89 93 100 105 110 116 110 96 80 72 80 55 43 41 52 56 72 80 57 67 71 77 75 77 82 84 86 88 90 90 92
33 36 32 28 21 12 7 7 10 16 25 36 49 60 77 84 86 86 90 94 101 108 113 119 114 96 76 77 80 81 64 60 60 65 63 61 83 72 64 60 67 73 77 82 88 87 87 90 94
37 37 37 34 29 19 10 4 4 9 20 33 45 55 71 83 86 86 87 89 94 105 114 113 110 105 83 75 71 87 53 64 70 67 70 70 67 75 67 70 60 73 77 73 72 77 85 88 91
40 37 36 35 33 28 19 10 2 7 17 29 40 52 70 78 78 79 81 83 91 100 108 109 109 102 86 88 73 61 65 70 67 69 72 69 74 68 66 71 71 70 67 72 77 78 86 87 89
40 37 36 35 35 32 27 18 8 11 18 28 39 51 68 74 73 76 78 80 85 97 101 106 99 101 92 90 80 79 75 63 75 80 78 76 75 81 84 82 84 77 76 75 80 85 86 87 90
Wind_Direction
253 251 249 250 250 246 246 250 247 250 246 244 245 246 246 247 249 246 248 250 253 256 257 258 262 264 266 268 270 277 277 283 289 290 298 302 310 312 313 321 309 303 297 287 277 271 266 265 264
258 254 252 251 248 246 250 250 251 249 246 245 245 245 245 248 248 245 246 248 250 253 255 257 260 262 264 265 269 270 274 278 284 282 291 294 301 310 313 312 310 303 304 296 286 278 269 264 261
260 256 250 250 246 248 247 250 252 251 247 245 245 244 245 247 249 247 246 247 249 249 253 256 257 260 261 262 265 268 271 276 277 278 285 286 293 301 300 308 307 301 299 296 289 283 279 274 269
261 257 253 248 245 247 246 245 250 250 249 245 244 243 244 244 245 247 247 245 247 248 249 252 253 256 258 261 263 265 268 271 271 276 277 278 287 295 295 299 305 299 292 290 289 283 279 278 273
261 258 256 250 252 246 245 244 246 250 250 246 244 245 242 243 244 244 245 244 247 248 247 249 251 253 255 257 258 263 264 268 268 273 273 273 282 290 287 292 299 304 285 284 286 283 278 275 272
259 256 255 253 252 248 245 245 242 246 249 248 244 243 247 247 244 244 245 244 244 245 247 248 248 250 252 254 255 259 262 266 268 272 271 274 274 286 278 287 291 302 283 282 279 278 278 274 273
256 256 257 256 252 246 247 246 240 240 245 246 246 243 246 246 244 243 243 243 245 244 246 246 246 247 249 250 253 256 258 261 265 266 268 270 271 281 269 281 282 287 285 278 278 272 272 273 272
262 259 254 253 252 246 250 247 243 239 243 243 244 243 242 243 243 244 243 243 243 243 242 245 245 245 246 248 251 254 257 258 260 263 264 263 268 272 273 272 278 273 281 274 271 271 271 273 273
263 260 256 254 253 249 245 244 244 244 242 241 243 240 239 240 240 242 242 241 243 243 242 241 243 245 244 245 246 251 254 252 255 256 255 255 258 264 264 261 273 276 267 274 275 270 268 269 271
264 262 259 257 253 250 246 243 242 241 240 241 242 239 236 236 237 238 240 242 241 242 242 242 243 246 243 242 243 247 248 249 251 250 252 252 255 258 258 256 262 265 264 268 268 265 267 269 270
267 264 263 260 255 251 245 244 241 239 238 239 241 241 237 233 233 235 235 238 236 239 242 244 245 244 243 240 239 241 244 245 247 246 246 247 250 252 254 254 259 260 265 260 262 265 265 266 268
269 264 260 258 255 252 247 242 240 236 236 238 240 239 238 233 232 231 229 231 232 230 241 241 243 243 242 239 238 239 241 243 244 245 241 243 245 249 252 252 256 258 260 256 263 261 264 264 265
271 266 261 255 252 248 241 239 239 237 236 237 235 238 236 233 232 229 228 226 228 224 232 238 243 239 237 236 237 238 241 242 243 245 240 242 243 247 249 249 252 257 258 257 259 261 263 263 263
274 271 266 260 254 249 246 241 237 236 232 233 234 234 233 233 230 227 227 223 222 225 232 248 234 238 237 237 237 236 240 241 241 243 241 243 244 247 249 248 250 256 258 261 259 260 262 264 265
280 275 268 263 257 252 247 240 238 231 230 227 229 231 231 231 228 228 226 223 222 221 205 220 229 237 239 238 237 238 237 241 243 243 244 243 245 246 250 249 249 253 257 261 263 263 264 265 265
285 278 271 267 265 260 252 245 238 230 229 224 225 226 227 228 228 226 223 223 220 216 210 200 229 245 248 240 243 244 235 235 237 241 244 244 246 247 247 254 253 254 257 261 263 264 265 267 268
293 284 277 273 271 267 256 239 238 228 224 224 221 223 223 226 224 222 223 221 220 219 209 209 209 218 218 242 233 227 238 240 239 242 243 246 246 248 248 250 254 257 258 259 262 265 267 267 268
304 294 287 279 277 268 246 236 233 229 222 221 219 220 219 223 222 218 221 219 219 215 200 202 191 207 228 245 232 241 245 243 239 240 242 242 245 247 249 249 251 257 261 261 261 263 268 269 271
315 302 296 289 276 262 252 246 240 230 221 218 218 216 217 218 220 215 217 218 213 211 197 191 186 201 210 220 233 229 244 238 233 235 236 240 242 245 250 251 251 254 260 265 262 265 264 267 269
328 317 305 289 285 270 259 245 231 232 222 217 214 215 215 214 216 211 213 212 210 207 198 200 194 190 223 225 221 227 243 239 239 240 239 239 243 242 246 248 251 254 256 260 261 263 264 266 266
335 324 314 294 288 275 261 251 233 228 220 213 212 213 212 211 212 207 210 209 206 203 191 193 198 194 212 219 213 225 231 235 237 243 241 238 239 245 246 248 251 254 254 259 261 263 264 264 264
334 324 314 302 288 271 263 252 236 224 223 213 211 210 209 209 208 205 205 205 205 199 193 191 192 200 202 205 213 222 231 241 239 243 241 237 238 244 247 251 252 257 259 260 260 262 264 266 269
332 329 324 311 301 281 261 252 230 222 217 212 211 211 206 207 205 202 202 201 197 195 189 191 188 197 199 207 214 219 224 232 235 237 236 234 240 246 250 251 253 255 259 261 263 265 266 268 271
338 342 336 321 315 300 273 251 234 223 212 207 211 210 203 204 206 200 200 199 196 188 186 191 195 196 199 207 211 209 245 225 236 245 248 249 252 253 255 257 258 259 259 260 263 266 267 268 269
349 349 347 337 333 323 293 260 243 223 214 202 207 209 201 201 203 200 199 198 196 193 192 192 193 194 194 205 203 212 228 240 236 238 248 255 257 257 257 258 259 261 262 262 264 265 266 268 270
351 360 355 354 353 351 315 273 241 225 214 204 202 204 201 196 198 197 198 198 193 192 190 192 192 196 198 201 200 206 207 231 234 240 251 242 247 252 254 258 263 262 261 263 264 266 267 269 271
9 14 9 9 6 4 347 283 250 226 213 203 197 201 196 191 192 193 195 198 193 190 188 193 194 194 199 205 207 217 230 229 229 226 243 246 245 248 253 251 247 256 259 260 264 267 269 270 271
26 20 16 17 12 11 6 351 265 215 198 196 194 192 192 187 190 191 194 196 193 192 193 195 197 198 198 204 208 215 228 231 237 228 235 235 240 245 249 251 256 255 258 262 265 263 267 269 268
32 26 24 25 24 18 23 32 62 167 179 185 185 185 186 186 186 189 192 195 194 193 195 198 198 201 200 208 208 215 226 227 228 227 231 237 241 238 242 247 250 257 260 261 265 265 268 269 269
37 34 36 33 34 27 30 36 70 136 159 166 175 177 180 180 180 186 189 192 194 193 196 198 200 199 203 208 211 213 227 229 239 235 238 240 235 245 246 249 251 256 261 263 264 264 264 267 269
Height
10698 10698 10698 10702 10708 10721 10725 10723 10709 10696 10700 10710 10721 10733 10741 10749 10759 10767 10766 10764 10771 10779 10783 10789 10793 10797 10800 10804 10807 10809 10813 10815 10816 10817 10818 10818 10818 10817 10817 10816 10814 10813 10811 10808 10807 10806 10806 10806 10806
10680 10680 10682 10686 10695 10703 10710 10697 10688 10675 10686 10702 10710 10718 10728 10735 10742 10752 10752 10752 10761 10769 10774 10780 10784 10789 10793 10798 10799 10803 10807 10810 10812 10813 10813 10814 10813 10814 10813 10813 10812 10809 10808 10806 10805 10803 10803 10803 10802
10660 10660 10661 10668 10681 10693 10683 10678 10668 10668 10676 10686 10697 10703 10712 10721 10725 10736 10740 10742 10746 10757 10765 10770 10775 10780 10784 10790 10793 10796 10801 10804 10806 10808 10808 10809 10808 10810 10810 10810 10809 10806 10804 10803 10802 10801 10800 10800 10800
10639 10640 10640 10651 10666 10665 10661 10659 10651 10651 10656 10670 10680 10691 10700 10704 10711 10718 10726 10730 10735 10745 10753 10759 10765 10771 10776 10781 10785 10789 10793 10797 10799 10802 10804 10804 10803 10805 10805 10805 10805 10803 10801 10800 10799 10798 10798 10797 10797
10614 10615 10615 10632 10642 10641 10636 10638 10639 10635 10636 10650 10661 10675 10685 10685 10692 10702 10708 10716 10725 10732 10742 10749 10754 10760 10767 10771 10777 10781 10785 10790 10792 10795 10798 10799 10798 10799 10800 10800 10799 10798 10797 10795 10794 10795 10794 10793 10793
10586 10587 10595 10606 10608 10612 10615 10615 10621 10620 10616 10624 10644 10658 10664 10671 10679 10687 10696 10703 10713 10720 10728 10737 10743 10749 10756 10762 10767 10773 10778 10782 10785 10788 10791 10793 10793 10794 10795 10795 10794 10793 10792 10791 10790 10790 10790 10789 10789
10565 10563 10570 10575 10586 10585 10587 10590 10594 10602 10601 10604 10620 10641 10645 10652 10663 10672 10681 10688 10697 10707 10716 10723 10731 10737 10744 10751 10756 10762 10770 10774 10777 10780 10784 10785 10787 10786 10789 10789 10790 10789 10788 10787 10787 10785 10785 10785 10785
10537 10542 10547 10546 10550 10557 10560 10566 10570 10577 10580 10582 10589 10614 10627 10632 10643 10652 10662 10672 10682 10693 10702 10710 10718 10725 10732 10740 10745 10751 10759 10764 10768 10772 10776 10778 10780 10780 10782 10783 10784 10784 10782 10781 10781 10783 10781 10780 10780
10509 10510 10512 10512 10515 10526 10529 10535 10542 10549 10560 10561 10566 10588 10605 10613 10625 10631 10643 10657 10669 10679 10688 10695 10705 10714 10721 10728 10735 10742 10748 10754 10758 10763 10766 10770 10771 10773 10774 10775 10776 10778 10776 10776 10776 10778 10777 10776 10776
10481 10481 10473 10480 10482 10490 10496 10502 10510 10516 10530 10538 10542 10554 10578 10589 10601 10615 10627 10641 10656 10665 10675 10682 10691 10703 10710 10717 10724 10730 10736 10743 10748 10753 10756 10761 10763 10765 10766 10767 10768 10769 10770 10769 10769 10770 10770 10770 10770
10451 10448 10443 10448 10447 10452 10464 10469 10475 10487 10506 10513 10517 10526 10548 10564 10577 10595 10608 10622 10640 10650 10660 10672 10678 10690 10699 10706 10713 10720 10725 10731 10737 10743 10747 10750 10754 10756 10757 10757 10760 10761 10762 10762 10763 10762 10763 10762 10763
10415 10409 10413 10411 10409 10419 10427 10435 10447 10453 10482 10479 10491 10499 10519 10540 10554 10571 10588 10604 10622 10638 10647 10658 10667 10677 10688 10694 10702 10710 10715 10721 10727 10732 10737 10741 10744 10746 10748 10749 10751 10753 10754 10754 10754 10755 10755 10755 10754
10379 10374 10371 10374 10370 10373 10386 10403 10410 10434 10457 10454 10466 10473 10491 10514 10533 10552 10570 10588 10607 10625 10639 10651 10655 10662 10674 10680 10690 10698 10705 10710 10717 10723 10726 10730 10734 10736 10739 10740 10741 10743 10745 10747 10746 10746 10746 10747 10747
10348 10343 10339 10336 10330 10341 10352 10372 10378 10413 10397 10415 10432 10449 10464 10486 10510 10531 10552 10571 10592 10616 10636 10639 10645 10651 10660 10669 10677 10687 10694 10699 10705 10712 10715 10721 10726 10728 10730 10731 10731 10733 10736 10739 10738 10737 10737 10738 10739
10320 10318 10309 10298 10299 10318 10318 10348 10353 10352 10362 10385 10401 10422 10436 10461 10486 10513 10534 10554 10579 10602 10619 10627 10642 10649 10653 10659 10666 10676 10683 10690 10696 10700 10706 10710 10716 10719 10721 10721 10721 10724 10729 10731 10729 10728 10729 10729 10730
10304 10294 10288 10278 10277 10291 10307 10322 10308 10324 10334 10352 10372 10390 10413 10433 10465 10493 10514 10537 10562 10586 10607 10623 10636 10647 10654 10654 10657 10663 10672 10679 10685 10691 10696 10701 10706 10709 10711 10712 10714 10717 10719 10721 10721 10720 10720 10721 10721
10283 10275 10269 10263 10263 10274 10281 10279 10265 10283 10302 10321 10343 10364 10390 10409 10442 10473 10497 10519 10543 10571 10594 10610 10627 10634 10646 10649 10647 10652 10660 10667 10672 10678 10684 10689 10695 10698 10700 10702 10706 10709 10709 10710 10712 10711 10711 10711 10710
10269 10261 10250 10253 10250 10251 10246 10233 10241 10262 10282 10298 10318 10343 10368 10389 10419 10452 10477 10500 10526 10554 10579 10594 10609 10627 10641 10635 10640 10643 10649 10655 10660 10666 10670 10678 10682 10686 10689 10693 10696 10697 10698 10699 10702 10702 10701 10699 10699
10258 10248 10241 10238 10235 10228 10230 10232 10239 10242 10260 10276 10297 10322 10347 10369 10395 10433 10457 10484 10508 10535 10562 10579 10599 10614 10623 10628 10628 10635 10638 10643 10648 10650 10655 10664 10671 10675 10679 10681 10685 10686 10687 10689 10689 10689 10688 10687 10686
10248 10238 10231 10225 10220 10214 10214 10212 10218 10228 10246 10262 10276 10303 10328 10350 10377 10416 10440 10464 10493 10520 10544 10568 10589 10605 10615 10615 10620 10627 10626 10629 10635 10639 10645 10653 10658 10662 10665 10669 10672 10674 10675 10676 10675 10676 10674 10674 10673
10241 10230 10222 10216 10208 10204 10199 10203 10210 10219 10228 10242 10260 10283 10307 10333 10363 10400 10423 10451 10477 10505 10533 10554 10571 10582 10586 10599 10613 10615 10620 10621 10624 10627 10633 10642 10646 10651 10654 10656 10660 10661 10664 10662 10662 10661 10660 10658 10659
10232 10219 10213 10206 10199 10196 10190 10198 10205 10206 10219 10231 10242 10263 10292 10319 10344 10380 10405 10437 10463 10487 10518 10536 10553 10564 10579 10594 10605 10609 10609 10613 10616 10614 10621 10629 10634 10639 10642 10645 10647 10650 10650 10649 10648 10647 10646 10647 10646
10227 10217 10207 10199 10193 10189 10186 10191 10193 10195 10206 10221 10233 10252 10278 10300 10326 10363 10391 10421 10448 10473 10498 10519 10541 10556 10570 10580 10594 10598 10603 10606 10608 10611 10610 10618 10625 10629 10630 10632 10634 10635 10635 10635 10635 10632 10633 10632 10631
10225 10212 10202 10195 10188 10185 10183 10185 10184 10193 10200 10214 10228 10244 10271 10296 10322 10352 10381 10411 10437 10461 10486 10509 10527 10541 10555 10568 10577 10598 10597 10597 10601 10603 10603 10608 10613 10619 10618 10619 10620 10619 10620 10620 10619 10618 10617 10614 10613
10223 10211 10202 10194 10187 10182 10180 10181 10182 10188 10194 10205 10220 10238 10261 10286 10317 10352 10379 10402 10426 10452 10475 10497 10510 10531 10548 10559 10570 10583 10584 10588 10593 10597 10596 10596 10603 10604 10604 10605 10603 10603 10604 10604 10602 10600 10598 10596 10594
10223 10214 10204 10195 10188 10182 10179 10179 10179 10184 10191 10201 10211 10230 10257 10281 10314 10347 10373 10391 10413 10438 10462 10483 10497 10516 10535 10549 10556 10568 10572 10575 10578 10589 10582 10585 10592 10587 10588 10589 10589 10587 10587 10588 10585 10582 10579 10579 10575
10225 10214 10207 10197 10190 10184 10181 10178 10180 10183 10190 10199 10211 10230 10252 10278 10308 10336 10358 10378 10399 10423 10446 10462 10482 10509 10532 10544 10552 10556 10559 10564 10564 10573 10566 10574 10575 10576 10575 10574 10573 10569 10571 10567 10568 10567 10563 10560 10554
10230 10222 10211 10203 10194 10188 10184 10182 10181 10184 10189 10199 10210 10228 10251 10271 10296 10324 10353 10378 10402 10422 10442 10467 10489 10504 10519 10531 10539 10545 10550 10551 10551 10556 10557 10563 10558 10563 10563 10560 10561 10554 10555 10557 10553 10549 10546 10543 10536
10237 10230 10222 10213 10203 10195 10189 10186 10185 10186 10191 10200 10213 10229 10251 10277 10302 10332 10356 10379 10399 10420 10441 10459 10478 10497 10510 10520 10529 10537 10535 10537 10538 10541 10544 10546 10550 10551 10547 10547 10546 10541 10543 10542 10539 10535 10530 10526 10519
10252 10244 10236 10226 10215 10207 10199 10194 10191 10193 10196 10205 10217 10233 10253 10282 10307 10331 10354 10377 10396 10417 10435 10453 10474 10489 10501 10510 10518 10518 10518 10520 10519 10527 10529 10532 10533 10537 10537 10536 10533 10530 10530 10526 10523 10520 10515 10510 10503